Regional Weather Roundup
Issued by NWS

Current Version | Previous Version | Text Only | Print | Product List | Glossary On
Versions: 1 2 3 4 5 6 7 8 9 10 11 12 13 14 15 16 17 18 19 20 21 22 23 24 25 26 27 28 29 30 31 32 33 34 35 36 37 38 39 40 41 42 43 44 45 46 47 48 49 50
000
ASUS44 KFWD 011903
RWRTX
NORTH TEXAS HOURLY WEATHER ROUNDUP
NATIONAL WEATHER SERVICE FORT WORTH TX
200 PM CDT SAT OCT 01 2016

NOTE: "FAIR" INDICATES FEW OR NO CLOUDS BELOW 12,000 FEET WITH NO
SIGNIFICANT WEATHER AND/OR OBSTRUCTIONS TO VISIBILITY.

TXZ118-119-012000-
DALLAS/FORT WORTH METROPLEX

CITY           SKY/WX    TMP DP  RH WIND       PRES   REMARKS
DFW AIRPORT    PTSUNNY   81  48  31 CALM      30.05F
DALLAS LOVE    MOSUNNY   82  50  32 W6        30.06F
FTW MEACHAM    SUNNY     81  49  32 S5        30.06F
DAL-EXECUTIVE  SUNNY     81  52  36 SW8       30.06F
FTW-ALLIANCE   PTSUNNY   81  51  35 S7        30.06F
FTW-NAS-JRB    MOSUNNY   81  49  32 VRB6      30.06F
FTW-SPINKS     SUNNY     82  48  30 SW5       30.08F
ARLINGTON      SUNNY     81  50  33 VRB3      30.06F
GRAND PRAIRIE  SUNNY     81  48  32 S7        30.08F
ADDISON        SUNNY     81  50  34 S7        30.07F
MESQUITE       SUNNY     81  48  32 S3        30.06F
LANCASTER      SUNNY     82  49  31 S3        30.07F
$$

TXZ091>094-102>105-117-120-121-131>134-012000-
NORTH CENTRAL TEXAS

CITY           SKY/WX    TMP DP  RH WIND       PRES   REMARKS
SHRMAN/DENISON NOT AVBL
GAINESVILLE      N/A     77  52  42 SE6       30.09F
BRIDGEPORT     SUNNY     81  54  39 S6        30.08F
DECATUR        SUNNY     78  49  35 SE3       30.07F
DENTON         CLOUDY    80  52  37 S8        30.06F
MCKINNEY       SUNNY     78  50  37 S6        30.06F
GREENVILLE       N/A     79  46  31 CALM      30.07F
ROCKWALL       SUNNY     79  53  40 W6        30.06F
TERRELL        SUNNY     80  52  37 W6        30.07F
WAXAHACHIE     SUNNY     76  54  44 CALM      30.09F
CLEBURNE       SUNNY     79  52  38 VRB5G13   30.09F
$$

TXZ083>090-098>101-113>116-127>130-139>142-154-155-012000-
WESTERN NORTH TEXAS

CITY           SKY/WX    TMP DP  RH WIND       PRES   REMARKS
WICHITA FALLS  MOSUNNY   78  55  44 S9        30.06F
WF-KICKAPOO    CLOUDY    79  52  38 SE6       30.07F
VERNON         SUNNY     81  45  27 S7        30.06F
ABILENE        SUNNY     81  55  40 SE8       30.08F
ABILENE-DYESS  SUNNY     81  57  43 VRB7      30.05F
CISCO          SUNNY     79  52  38 VRB5      30.09F
MINERAL WELLS  SUNNY     81  50  33 S7        30.05F
STEPHENVILLE   SUNNY     81  48  31 CALM      30.10F
COMANCHE       SUNNY     78  55  44 S8        30.09F
BROWNWOOD      CLOUDY    79  55  44 S7        30.08F
COLEMAN        SUNNY     81  53  37 SW5       30.08F
$$

TXZ143>147-156>162-174-175-012000-
CENTRAL TEXAS

CITY           SKY/WX    TMP DP  RH WIND       PRES   REMARKS
WACO           MOSUNNY   80  55  42 VRB6      30.08F
WACO-MCGREGOR  MOSUNNY   80  54  40 VRB3      30.08F
HILLSBORO      MOSUNNY   78  52  40 SE9       30.08F
CORSICANA      MOSUNNY   79  53  40 VRB3      30.09F
MEXIA          PTSUNNY   74  55  49 CALM      30.08F
HEARNE         CLOUDY    73  56  54 CALM      30.09F
CAMERON        CLOUDY    74  60  62 S3        30.09F
TEMPLE         MOSUNNY   76  54  46 S9        30.09F
KILLEEN        CLOUDY    73  54  51 S3        30.08F
KILLEEN-SKYLRK CLOUDY    74  56  53 S6        30.09F
FORT HOOD      CLOUDY    74  53  46 S6        30.07F
HAMILTON       MOSUNNY   79  53  40 S6        30.10F
$$

TXZ095>097-106>112-122>126-135>138-148>153-164>167-012000-
EAST TEXAS

CITY           SKY/WX    TMP DP  RH WIND       PRES   REMARKS
PARIS          CLOUDY    81  50  34 SW6       30.07F
SULPHUR SPRNGS MOSUNNY   82  49  31 S3        30.09F
MOUNT PLEASANT SUNNY     80  49  33 W8        30.08F
GILMER         MOSUNNY   78  53  40 CALM      30.07F
MINEOLA        SUNNY     79  52  38 CALM      30.07F
TYLER          MOSUNNY   80  50  34 VRB6      30.07F
LONGVIEW       CLOUDY    81  55  40 S7        30.06F
MARSHALL       MOSUNNY   78  48  34 E5        30.09F
ATHENS         MOSUNNY   75  50  41 CALM      30.07F
PALESTINE      PTSUNNY   77  55  45 S6        30.10F
JACKSONVILLE   PTSUNNY   79  54  41 SW3       30.10F
HENDERSON      MOSUNNY   78  54  43 SE3       30.09F
CENTER         MOCLDY    79  55  42 CALM      30.08F
NACOGDOCHES    CLOUDY    79  55  44 CALM      30.06F
LUFKIN         MOSUNNY   79  54  41 SE6       30.06F
$$

SUPPLEMENTAL OBSERVATIONS (CENTRAL)

CITY           SKY/WX    TMP DP  RH WIND       PRES   REMARKS
$$

SUPPLEMENTAL OBSERVATIONS (WEST)

CITY           SKY/WX    TMP DP  RH WIND       PRES   REMARKS
$$

SUPPLEMENTAL OBSERVATIONS (EAST)

CITY           SKY/WX    TMP DP  RH WIND       PRES   REMARKS
$$

SUPPLEMENTAL OBSERVATIONS ARE A COLLECTION OF AUTOMATED INSTRUMENTS
THAT ARE MAINTAINED BY A VARIETY OF FEDERAL AND STATE AGENCIES.
CERTAIN ELEMENTS...SUCH AS HUMIDITY VALUES AND SUSTAINED WIND
SPEEDS...MAY BE APPROXIMATED.




USA.gov is the U.S. government's official web portal to all federal, state and local government web resources and services.